Location: Unspecified
(0.0000°N, 0.0000°E)
Time: 21:24:38
(UTC+00:00)

Tiros 1 despin weight - Pass Details

Date: 29 May 2022
Orbit: 591 x 639 km, 48.2° (Epoch: 25 June)

Event Time Altitude Azimuth Distance (km) Brightness Sun altitude
Rises 13:03:04 0° 204° (SSW) 2,934 ? 63.1°
Reaches altitude 10° 13:05:33 10° 195° (SSW) 2,022 ? 62.7°
Maximum altitude 13:09:49 35° 129° (SE) 1,019 ? 62.1°
Drops below altitude 10° 13:14:03 10° 63° (ENE) 2,001 ? 61.4°
Sets 13:16:29 0° 54° (NE) 2,899 ? 61.0°
